Showing default

KITSAT B, 22828

Orbit data source: Space-Track

KITSAT B, 22828 is a payload satellite owned by KAIST (KR) in SSO that was launched on Sun, 26 Sep 1993 UTC via an ARIANE 40 launch vehicle from the French Guiana (FRGUI). Payload-class satellites include a variety of spacecraft equipped with specific instruments for various scientific and technological missions. These include communications satellites like Starlink; space stations such as the ISS; scientific satellites like the Hubble; Earth observation satellites from companies like Planet Labs, Umbra, and HawkEye 360; GPS; miniature CubeSats for education and research; and military/defense satellites.

Loading next visibility...
Identifier
22828, 1993-061F
Orbit
SSO
Country
Flag of UnknownUnknown / SKOR
Related business
Manufacturer
SSTL
Mission
Non-operational Civil Com/Imaging
Bus & Motor
UOSAT, Unknown motor
Mass
50 kg wet, 50 kg dry
Launch date (UTC)
1993-09-26 (32 years ago)
Launch vehicle
ARIANE 40
Launch site
French Guiana (FRGUI)
Object type
Payload
Rocket body
Debris
Shape & HBR
Box + 1 Ant, 3.3 m
Radar Cross Section
0.632 m², Medium (>0.1 m² and < 1m²)

Expand to show TLE details & history
Last TLE update: 11 hours ago

TLE from 11 hours ago
0 KITSAT B
1 22828U 93061F   25310.65316301  .00000267  00000-0  11691-3 0  9993
2 22828  98.7170  12.5204 0009435 346.7824  13.3111 14.31690236643968
Epoch: 2025-11-06T15:40Z
TLE epoch observation values (Epoch: 2025-11-06T15:40:33.284Z)
Latitude
0.00007°
Longitude
91.27331°
Altitude
782.438 km
Speed
7.466 km/s
True Right ascension
00h 50m 04s
True Declination
0° 00' 00"
Sunlit
Object was in full shadow at epoch
Visualization orbit readout
Latitude
Unknown
Longitude
Unknown
Altitude
Unknown
Speed
Unknown
Apparent Right ascension
Unknown
Apparent Declination
Unknown
Sunlit
N/A
Visualization observer readout
Local Sidereal Time
22:51:45
Azimuth
Unknown
Elevation
Unknown
Doppler factor
Unknown
Orbital elements
Apogee altitude
789.987 km
Perigee altitude
776.473 km
Semi-major axis
7,161.367 km
Eccentricity
0.00094
Inclination
98.717°
RAAN
12.5204°
Arg. of periapsis
346.7824°
True anomaly
13.33602°
Mean anomaly
13.3111°
Eccentric anomaly
13.32356°
Mean motion
3.58137 °/min
Orbital period
100.52 mins
BSTAR
0.00011691
Loading maneuver chart data...
Computing Atmospheric mass density...
Loading historical data...
Loading historical data...
Loading historical data...
Loading historical data...
Loading historical data...
Loading historical data...
Loading historical data...

Documentation

Showing up to 5 results
|